Location: Park tmavé oblohy Beskydy, www.darkskybeskydy.cz
(49.4926°N, 18.5016°E)
Time: 00:31:06
(UTC+02:00)

ISS - Visible Passes

Search period start: 26 May 2019 00:00
Search period end: 05 June 2019 00:00
Orbit: 408 x 418 km, 51.6° (Epoch: 26 May)

Date Brightness Start Highest point End Pass type
(mag) Time Alt. Az. Time Alt. Az. Time Alt. Az.
26 May -1.1 01:04:59 10° W 01:05:09 11° W 01:05:09 11° W visible
26 May -3.6 22:38:31 10° WNW 22:41:52 72° NNE 22:44:24 16° E visible
27 May -2.3 00:15:19 10° W 00:17:13 26° WSW 00:17:13 26° WSW visible
27 May -3.3 21:49:01 10° WNW 21:52:20 61° N 21:55:40 10° E visible
27 May -3.7 23:25:45 10° WNW 23:29:01 53° SSW 23:29:17 51° S visible
28 May -3.9 22:36:14 10° WNW 22:39:34 75° SSW 22:41:24 25° ESE visible
29 May -1.4 00:13:29 10° W 00:14:12 13° WSW 00:14:12 13° WSW visible
29 May -3.7 21:46:43 10° WNW 21:50:04 83° NNE 21:53:25 10° ESE visible
29 May -2.5 23:23:37 10° W 23:26:19 27° SW 23:26:19 27° SW visible
30 May -3.1 22:33:57 10° W 22:37:07 40° SSW 22:38:28 26° SSE visible
31 May -3.6 21:44:22 10° WNW 21:47:39 59° SSW 21:50:38 12° SE visible
31 May -1.4 23:22:08 10° WSW 23:23:27 13° SW 23:23:27 13° SW visible
01 Jun -2.0 22:31:55 10° W 22:34:28 20° SW 22:35:39 17° S visible
02 Jun -2.6 21:42:06 10° W 21:45:04 30° SW 21:47:52 11° SSE visible
04 Jun -1.5 21:40:18 10° W 21:42:17 15° SW 21:44:17 10° S visible
